COMPASS-1

Last updated on Fri Feb 16 2018 09:55:48 GMT+0000 (Coordinated Universal Time)

1 32787U 08021E 18046.60870965 .00000603 00000-0 63213-4 0 9996 2 32787 97.5377 74.8567 0013610 50.5115 309.7306 14.92912289531769
UTC large
Height (km)
Speed (km/s)
/
Latitude / Longitude
Inclination (degrees)
Orbital Period (minutes)
Azimuth
Elevation
Range (km)
Doppler Factor

Next 0 passes for location: London (51.5072 / 0.1276)

Sorry there are no passes over London.